Year,Month,Day,Hour,Minute,Value (Times are PST for temperature in C)
2016,03,28,00,00,3.50
2016,03,28,00,01,3.50
2016,03,28,00,02,3.50
2016,03,28,00,03,3.50
2016,03,28,00,04,3.50
2016,03,28,00,05,3.40
2016,03,28,00,06,3.40
2016,03,28,00,07,3.40
2016,03,28,00,08,3.40
2016,03,28,00,09,3.40
2016,03,28,00,10,3.40
2016,03,28,00,11,3.30
2016,03,28,00,12,3.30
2016,03,28,00,13,3.30
2016,03,28,00,14,3.30
2016,03,28,00,15,3.30
2016,03,28,00,16,3.30
2016,03,28,00,17,3.30
2016,03,28,00,18,3.40
2016,03,28,00,19,3.30
2016,03,28,00,20,3.30
2016,03,28,00,21,3.30
2016,03,28,00,22,3.30
2016,03,28,00,23,3.20
2016,03,28,00,24,3.20
2016,03,28,00,25,3.20
2016,03,28,00,26,3.20
2016,03,28,00,27,3.20
2016,03,28,00,28,3.20
2016,03,28,00,29,3.20
2016,03,28,00,30,3.20
2016,03,28,00,31,3.10
2016,03,28,00,32,3.10
2016,03,28,00,33,3.10
2016,03,28,00,34,3.10
2016,03,28,00,35,3.10
2016,03,28,00,36,3.10
2016,03,28,00,37,3.10
2016,03,28,00,38,3.10
2016,03,28,00,39,3.10
2016,03,28,00,40,3.00
2016,03,28,00,41,3.00
2016,03,28,00,42,3.00
2016,03,28,00,43,3.00
2016,03,28,00,44,3.00
2016,03,28,00,45,3.00
2016,03,28,00,46,2.90
2016,03,28,00,47,2.90
2016,03,28,00,48,2.90
2016,03,28,00,49,2.90
2016,03,28,00,50,2.90
2016,03,28,00,51,2.90
2016,03,28,00,52,2.90
2016,03,28,00,53,2.90
2016,03,28,00,54,2.90
2016,03,28,00,55,2.90
2016,03,28,00,56,2.90
2016,03,28,00,57,2.90
2016,03,28,00,58,2.90
2016,03,28,00,59,2.80
2016,03,28,01,00,2.80
2016,03,28,01,01,2.80
2016,03,28,01,02,2.80
2016,03,28,01,03,2.80
2016,03,28,01,04,2.80
2016,03,28,01,05,2.80
2016,03,28,01,06,2.80
2016,03,28,01,07,2.80
2016,03,28,01,08,2.80
2016,03,28,01,09,2.80
2016,03,28,01,10,2.80
2016,03,28,01,11,2.80
2016,03,28,01,12,2.80
2016,03,28,01,13,2.80
2016,03,28,01,14,2.80
2016,03,28,01,15,2.80
2016,03,28,01,16,2.80
2016,03,28,01,17,2.80
2016,03,28,01,18,2.80
2016,03,28,01,19,2.70
2016,03,28,01,20,2.70
2016,03,28,01,21,2.70
2016,03,28,01,22,2.70
2016,03,28,01,23,2.70
2016,03,28,01,24,2.70
2016,03,28,01,25,2.70
2016,03,28,01,26,2.70
2016,03,28,01,27,2.70
2016,03,28,01,28,2.70
2016,03,28,01,29,2.70
2016,03,28,01,30,2.70
2016,03,28,01,31,2.60
2016,03,28,01,32,2.60
2016,03,28,01,33,2.60
2016,03,28,01,34,2.60
2016,03,28,01,35,2.60
2016,03,28,01,36,2.60
2016,03,28,01,37,2.60
2016,03,28,01,38,2.60
2016,03,28,01,39,2.60
2016,03,28,01,40,2.60
2016,03,28,01,41,2.60
2016,03,28,01,42,2.60
2016,03,28,01,43,2.60
2016,03,28,01,44,2.60
2016,03,28,01,45,2.60
2016,03,28,01,46,2.60
2016,03,28,01,47,2.60
2016,03,28,01,48,2.60
2016,03,28,01,49,2.60
2016,03,28,01,50,2.60
2016,03,28,01,51,2.60
2016,03,28,01,52,2.70
2016,03,28,01,53,2.70
2016,03,28,01,54,2.70
2016,03,28,01,55,2.80
2016,03,28,01,56,2.80
2016,03,28,01,57,2.80
2016,03,28,01,58,2.80
2016,03,28,01,59,2.80
2016,03,28,02,00,2.80
2016,03,28,02,01,2.80
2016,03,28,02,02,2.80
2016,03,28,02,03,2.80
2016,03,28,02,04,2.80
2016,03,28,02,05,2.80
2016,03,28,02,06,2.80
2016,03,28,02,07,2.80
2016,03,28,02,08,2.80
2016,03,28,02,09,2.90
2016,03,28,02,10,2.90
2016,03,28,02,11,2.90
2016,03,28,02,12,2.90
2016,03,28,02,13,3.00
2016,03,28,02,14,3.00
2016,03,28,02,15,3.00
2016,03,28,02,16,3.00
2016,03,28,02,17,3.10
2016,03,28,02,18,3.10
2016,03,28,02,19,3.10
2016,03,28,02,20,3.10
2016,03,28,02,21,3.20
2016,03,28,02,22,3.20
2016,03,28,02,23,3.20
2016,03,28,02,24,3.20
2016,03,28,02,25,3.30
2016,03,28,02,26,3.30
2016,03,28,02,27,3.30
2016,03,28,02,28,3.30
2016,03,28,02,29,3.30
2016,03,28,02,30,3.30
2016,03,28,02,31,3.40
2016,03,28,02,32,3.40
2016,03,28,02,33,3.40
2016,03,28,02,34,3.40
2016,03,28,02,35,3.50
2016,03,28,02,36,3.50
2016,03,28,02,37,3.50
2016,03,28,02,38,3.50
2016,03,28,02,39,3.50
2016,03,28,02,40,3.60
2016,03,28,02,41,3.60
2016,03,28,02,42,3.60
2016,03,28,02,43,3.60
2016,03,28,02,44,3.60
2016,03,28,02,45,3.60
2016,03,28,02,46,3.70
2016,03,28,02,47,3.70
2016,03,28,02,48,3.70
2016,03,28,02,49,3.70
2016,03,28,02,50,3.70
2016,03,28,02,51,3.70
2016,03,28,02,52,3.70
2016,03,28,02,53,3.80
2016,03,28,02,54,3.80
2016,03,28,02,55,3.80
2016,03,28,02,56,3.80
2016,03,28,02,57,3.80
2016,03,28,02,58,3.80
2016,03,28,02,59,3.80
2016,03,28,03,00,3.90
2016,03,28,03,01,3.90
2016,03,28,03,02,3.90
2016,03,28,03,03,3.90
2016,03,28,03,04,3.90
2016,03,28,03,05,3.90
2016,03,28,03,06,3.90
2016,03,28,03,07,3.90
2016,03,28,03,08,4.00
2016,03,28,03,09,4.00
2016,03,28,03,10,4.00
2016,03,28,03,11,4.00
2016,03,28,03,12,4.10
2016,03,28,03,13,4.10
2016,03,28,03,14,4.10
2016,03,28,03,15,4.10
2016,03,28,03,16,4.10
2016,03,28,03,17,4.10
2016,03,28,03,18,4.10
2016,03,28,03,19,4.10
2016,03,28,03,20,4.20
2016,03,28,03,21,4.20
2016,03,28,03,22,4.20
2016,03,28,03,23,4.20
2016,03,28,03,24,4.20
2016,03,28,03,25,4.20
2016,03,28,03,26,4.20
2016,03,28,03,27,4.20
2016,03,28,03,28,4.30
2016,03,28,03,29,4.30
2016,03,28,03,30,4.30
2016,03,28,03,31,4.30
2016,03,28,03,32,4.30
2016,03,28,03,33,4.30
2016,03,28,03,34,4.30
2016,03,28,03,35,4.30
2016,03,28,03,36,4.30
2016,03,28,03,37,4.30
2016,03,28,03,38,4.30
2016,03,28,03,39,4.30
2016,03,28,03,40,4.30
2016,03,28,03,41,4.30
2016,03,28,03,42,4.30
2016,03,28,03,43,4.40
2016,03,28,03,44,4.40
2016,03,28,03,45,4.40
2016,03,28,03,46,4.40
2016,03,28,03,47,4.50
2016,03,28,03,48,4.50
2016,03,28,03,49,4.50
2016,03,28,03,50,4.50
2016,03,28,03,51,4.50
2016,03,28,03,52,4.60
2016,03,28,03,53,4.50
2016,03,28,03,54,4.60
2016,03,28,03,55,4.50
2016,03,28,03,56,4.50
2016,03,28,03,57,4.60
2016,03,28,03,58,4.60
2016,03,28,03,59,4.60
2016,03,28,04,00,4.60
2016,03,28,04,01,4.60
2016,03,28,04,02,4.60
2016,03,28,04,03,4.60
2016,03,28,04,04,4.60
2016,03,28,04,05,4.60
2016,03,28,04,06,4.60
2016,03,28,04,07,4.60
2016,03,28,04,08,4.60
2016,03,28,04,09,4.60
2016,03,28,04,10,4.70
2016,03,28,04,11,4.70
2016,03,28,04,12,4.70
2016,03,28,04,13,4.70
2016,03,28,04,14,4.70
2016,03,28,04,15,4.70
2016,03,28,04,16,4.70
2016,03,28,04,17,4.80
2016,03,28,04,18,4.80
2016,03,28,04,19,4.80
2016,03,28,04,20,4.80
2016,03,28,04,21,4.80
2016,03,28,04,22,4.80
2016,03,28,04,23,4.90
2016,03,28,04,24,4.90
2016,03,28,04,25,4.90
2016,03,28,04,26,4.90
2016,03,28,04,27,5.00
2016,03,28,04,28,5.00
2016,03,28,04,29,5.10
2016,03,28,04,30,5.10
2016,03,28,04,31,5.10
2016,03,28,04,32,5.10
2016,03,28,04,33,5.10
2016,03,28,04,34,5.10
2016,03,28,04,35,5.10
2016,03,28,04,36,5.10
2016,03,28,04,37,5.10
2016,03,28,04,38,5.10
2016,03,28,04,39,5.10
2016,03,28,04,40,5.20
2016,03,28,04,41,5.20
2016,03,28,04,42,5.20
2016,03,28,04,43,5.20
2016,03,28,04,44,5.20
2016,03,28,04,45,5.20
2016,03,28,04,46,5.20
2016,03,28,04,47,5.30
2016,03,28,04,48,5.30
2016,03,28,04,49,5.40
2016,03,28,04,50,5.40
2016,03,28,04,51,5.40
2016,03,28,04,52,5.50
2016,03,28,04,53,5.50
2016,03,28,04,54,5.60
2016,03,28,04,55,5.60
2016,03,28,04,56,5.70
2016,03,28,04,57,5.70
2016,03,28,04,58,5.70
2016,03,28,04,59,5.70
2016,03,28,05,00,5.70
2016,03,28,05,01,5.70
2016,03,28,05,02,5.70
2016,03,28,05,03,5.70
2016,03,28,05,04,5.80
2016,03,28,05,05,5.80
2016,03,28,05,06,5.90
2016,03,28,05,07,5.90
2016,03,28,05,08,5.90
2016,03,28,05,09,6.00
2016,03,28,05,10,6.00
2016,03,28,05,11,6.10
2016,03,28,05,12,6.10
2016,03,28,05,13,6.20
2016,03,28,05,14,6.20
2016,03,28,05,15,6.20
2016,03,28,05,16,6.20
2016,03,28,05,17,6.20
2016,03,28,05,18,6.20
2016,03,28,05,19,6.20
2016,03,28,05,20,6.10
2016,03,28,05,21,6.10
2016,03,28,05,22,6.10
2016,03,28,05,23,6.10
2016,03,28,05,24,6.10
2016,03,28,05,25,6.00
2016,03,28,05,26,6.00
2016,03,28,05,27,6.00
2016,03,28,05,28,6.00
2016,03,28,05,29,6.00
2016,03,28,05,30,6.10
2016,03,28,05,31,6.10
2016,03,28,05,32,6.10
2016,03,28,05,33,6.10
2016,03,28,05,34,6.10
2016,03,28,05,35,6.10
2016,03,28,05,36,6.20
2016,03,28,05,37,6.20
2016,03,28,05,38,6.20
2016,03,28,05,39,6.20
2016,03,28,05,40,6.20
2016,03,28,05,41,6.20
2016,03,28,05,42,6.20
2016,03,28,05,43,6.20
2016,03,28,05,44,6.30
2016,03,28,05,45,6.30
2016,03,28,05,46,6.30
2016,03,28,05,47,6.30
2016,03,28,05,48,6.30
2016,03,28,05,49,6.30
2016,03,28,05,50,6.30
2016,03,28,05,51,6.30
2016,03,28,05,52,6.30
2016,03,28,05,53,6.30
2016,03,28,05,54,6.20
2016,03,28,05,55,6.20
2016,03,28,05,56,6.20
2016,03,28,05,57,6.20
2016,03,28,05,58,6.20
2016,03,28,05,59,6.20
2016,03,28,06,00,6.20
2016,03,28,06,01,6.20
2016,03,28,06,02,6.30
2016,03,28,06,03,6.30
2016,03,28,06,04,6.30
2016,03,28,06,05,6.30
2016,03,28,06,06,6.40
2016,03,28,06,07,6.40
2016,03,28,06,08,6.40
2016,03,28,06,09,6.50
2016,03,28,06,10,6.50
2016,03,28,06,11,6.50
2016,03,28,06,12,6.60
2016,03,28,06,13,6.60
2016,03,28,06,14,6.60
2016,03,28,06,15,6.70
2016,03,28,06,16,6.70
2016,03,28,06,17,6.70
2016,03,28,06,18,6.80
2016,03,28,06,19,6.80
2016,03,28,06,20,6.80
2016,03,28,06,21,6.80
2016,03,28,06,22,6.90
2016,03,28,06,23,6.90
2016,03,28,06,24,6.90
2016,03,28,06,25,6.90
2016,03,28,06,26,7.00
2016,03,28,06,27,7.00
2016,03,28,06,28,7.00
2016,03,28,06,29,7.00
2016,03,28,06,30,7.10
2016,03,28,06,31,7.10
2016,03,28,06,32,7.10
2016,03,28,06,33,7.10
2016,03,28,06,34,7.10
2016,03,28,06,35,7.10
2016,03,28,06,36,7.10
2016,03,28,06,37,7.10
2016,03,28,06,38,7.10
2016,03,28,06,39,7.10
2016,03,28,06,40,7.10
2016,03,28,06,41,7.10
2016,03,28,06,42,7.10
2016,03,28,06,43,7.10
2016,03,28,06,44,7.10
2016,03,28,06,45,7.10
2016,03,28,06,46,7.10
2016,03,28,06,47,7.10
2016,03,28,06,48,7.10
2016,03,28,06,49,7.10
2016,03,28,06,50,7.10
2016,03,28,06,51,7.10
2016,03,28,06,52,7.10
2016,03,28,06,53,7.10
2016,03,28,06,54,7.10
2016,03,28,06,55,7.10
2016,03,28,06,56,7.10
2016,03,28,06,57,7.10
2016,03,28,06,58,7.10
2016,03,28,06,59,7.10
2016,03,28,07,00,7.10
2016,03,28,07,01,7.10
2016,03,28,07,02,7.10
2016,03,28,07,03,7.10
2016,03,28,07,04,7.10
2016,03,28,07,05,7.10
2016,03,28,07,06,7.10
2016,03,28,07,07,7.10
2016,03,28,07,08,7.10
2016,03,28,07,09,7.10
2016,03,28,07,10,7.10
2016,03,28,07,11,7.10
2016,03,28,07,12,7.10
2016,03,28,07,13,7.10
2016,03,28,07,14,7.10
2016,03,28,07,15,7.20
2016,03,28,07,16,7.20
2016,03,28,07,17,7.20
2016,03,28,07,18,7.20
2016,03,28,07,19,7.20
2016,03,28,07,20,7.20
2016,03,28,07,21,7.20
2016,03,28,07,22,7.20
2016,03,28,07,23,7.20
2016,03,28,07,24,7.20
2016,03,28,07,25,7.20
2016,03,28,07,26,7.20
2016,03,28,07,27,7.20
2016,03,28,07,28,7.20
2016,03,28,07,29,7.20
2016,03,28,07,30,7.20
2016,03,28,07,31,7.20
2016,03,28,07,32,7.20
2016,03,28,07,33,7.30
2016,03,28,07,34,7.30
2016,03,28,07,35,7.30
2016,03,28,07,36,7.30
2016,03,28,07,37,7.30
2016,03,28,07,38,7.30
2016,03,28,07,39,7.30
2016,03,28,07,40,7.30
2016,03,28,07,41,7.30
2016,03,28,07,42,7.30
2016,03,28,07,43,7.30
2016,03,28,07,44,7.40
2016,03,28,07,45,7.40
2016,03,28,07,46,7.40
2016,03,28,07,47,7.40
2016,03,28,07,48,7.40
2016,03,28,07,49,7.40
2016,03,28,07,50,7.40
2016,03,28,07,51,7.40
2016,03,28,07,52,7.40
2016,03,28,07,53,7.40
2016,03,28,07,54,7.40
2016,03,28,07,55,7.40
2016,03,28,07,56,7.50
2016,03,28,07,57,7.50
2016,03,28,07,58,7.50
2016,03,28,07,59,7.60
2016,03,28,08,00,7.60
2016,03,28,08,01,7.60
2016,03,28,08,02,7.60
2016,03,28,08,03,7.70
2016,03,28,08,04,7.70
2016,03,28,08,05,7.70
2016,03,28,08,06,7.70
2016,03,28,08,07,7.70
2016,03,28,08,08,7.80
2016,03,28,08,09,7.80
2016,03,28,08,10,7.80
2016,03,28,08,11,7.80
2016,03,28,08,12,7.80
2016,03,28,08,13,7.80
2016,03,28,08,14,7.80
2016,03,28,08,15,7.80
2016,03,28,08,16,7.80
2016,03,28,08,17,7.80
2016,03,28,08,18,7.80
2016,03,28,08,19,7.80
2016,03,28,08,20,7.80
2016,03,28,08,21,7.80
2016,03,28,08,22,7.80
2016,03,28,08,23,7.90
2016,03,28,08,24,7.90
2016,03,28,08,25,7.90
2016,03,28,08,26,7.90
2016,03,28,08,27,7.90
2016,03,28,08,28,7.90
2016,03,28,08,29,7.90
2016,03,28,08,30,7.90
2016,03,28,08,31,8.00
2016,03,28,08,32,8.00
2016,03,28,08,33,8.00
2016,03,28,08,34,8.00
2016,03,28,08,35,8.10
2016,03,28,08,36,8.10
2016,03,28,08,37,8.10
2016,03,28,08,38,8.10
2016,03,28,08,39,8.10
2016,03,28,08,40,8.10
2016,03,28,08,41,8.10
2016,03,28,08,42,8.10
2016,03,28,08,43,8.10
2016,03,28,08,44,8.10
2016,03,28,08,45,8.10
2016,03,28,08,46,8.10
2016,03,28,08,47,8.10
2016,03,28,08,48,8.10
2016,03,28,08,49,8.10
2016,03,28,08,50,8.10
2016,03,28,08,51,8.10
2016,03,28,08,52,8.10
2016,03,28,08,53,8.10
2016,03,28,08,54,8.10
2016,03,28,08,55,8.00
2016,03,28,08,56,8.00
2016,03,28,08,57,8.00
2016,03,28,08,58,8.00
2016,03,28,08,59,8.00
2016,03,28,09,00,8.00
2016,03,28,09,01,8.00
2016,03,28,09,02,8.00
2016,03,28,09,03,8.00
2016,03,28,09,04,8.00
2016,03,28,09,05,8.10
2016,03,28,09,06,8.10
2016,03,28,09,07,8.10
2016,03,28,09,08,8.10
2016,03,28,09,09,8.10
2016,03,28,09,10,8.10
2016,03,28,09,11,8.10
2016,03,28,09,12,8.10
2016,03,28,09,13,8.10
2016,03,28,09,14,8.10
2016,03,28,09,15,8.10
2016,03,28,09,16,8.10
2016,03,28,09,17,8.10
2016,03,28,09,18,8.10
2016,03,28,09,19,8.10
2016,03,28,09,20,8.10
2016,03,28,09,21,8.10
2016,03,28,09,22,8.10
2016,03,28,09,23,8.10
2016,03,28,09,24,8.10
2016,03,28,09,25,8.10
2016,03,28,09,26,8.10
2016,03,28,09,27,8.10
2016,03,28,09,28,8.10
2016,03,28,09,29,8.10
2016,03,28,09,30,8.10
2016,03,28,09,31,8.10
2016,03,28,09,32,8.10
2016,03,28,09,33,8.10
2016,03,28,09,34,8.10
2016,03,28,09,35,8.10
2016,03,28,09,36,8.10
2016,03,28,09,37,8.10
2016,03,28,09,38,8.10
2016,03,28,09,39,8.10
2016,03,28,09,40,8.10
2016,03,28,09,41,8.10
2016,03,28,09,42,8.10
2016,03,28,09,43,8.20
2016,03,28,09,44,8.20
2016,03,28,09,45,8.20
2016,03,28,09,46,8.20
2016,03,28,09,47,8.20
2016,03,28,09,48,8.20
2016,03,28,09,49,8.30
2016,03,28,09,50,8.30
2016,03,28,09,51,8.30
2016,03,28,09,52,8.30
2016,03,28,09,53,8.30
2016,03,28,09,54,8.30
2016,03,28,09,55,8.30
2016,03,28,09,56,8.30
2016,03,28,09,57,8.30
2016,03,28,09,58,8.30
2016,03,28,09,59,8.30
2016,03,28,10,00,8.30
2016,03,28,10,01,8.30
2016,03,28,10,02,8.30
2016,03,28,10,03,8.40
2016,03,28,10,04,8.40
2016,03,28,10,05,8.40
2016,03,28,10,06,8.40
2016,03,28,10,07,8.40
2016,03,28,10,08,8.40
2016,03,28,10,09,8.40
2016,03,28,10,10,8.50
2016,03,28,10,11,8.50
2016,03,28,10,12,8.50
2016,03,28,10,13,8.50
2016,03,28,10,14,8.50
2016,03,28,10,15,8.60
2016,03,28,10,16,8.60
2016,03,28,10,17,8.50
2016,03,28,10,18,8.50
2016,03,28,10,19,8.50
2016,03,28,10,20,8.50
2016,03,28,10,21,8.50
2016,03,28,10,22,8.50
2016,03,28,10,23,8.50
2016,03,28,10,24,8.60
2016,03,28,10,25,8.60
2016,03,28,10,26,8.70
2016,03,28,10,27,8.70
2016,03,28,10,28,8.70
2016,03,28,10,29,8.70
2016,03,28,10,30,8.70
2016,03,28,10,31,8.70
2016,03,28,10,32,8.70
2016,03,28,10,33,8.70
2016,03,28,10,34,8.80
2016,03,28,10,35,8.80
2016,03,28,10,36,8.80
2016,03,28,10,37,8.80
2016,03,28,10,38,8.90
2016,03,28,10,39,8.90
2016,03,28,10,40,9.00
2016,03,28,10,41,8.90
2016,03,28,10,42,8.90
2016,03,28,10,43,8.90
2016,03,28,10,44,8.90
2016,03,28,10,45,8.90
2016,03,28,10,46,8.90
2016,03,28,10,47,8.90
2016,03,28,10,48,8.90
2016,03,28,10,49,8.90
2016,03,28,10,50,8.90
2016,03,28,10,51,8.90
2016,03,28,10,52,8.90
2016,03,28,10,53,8.90
2016,03,28,10,54,8.80
2016,03,28,10,55,8.80
2016,03,28,10,56,8.80
2016,03,28,10,57,8.80
2016,03,28,10,58,8.70
2016,03,28,10,59,8.70
2016,03,28,11,00,8.70
2016,03,28,11,01,8.70
2016,03,28,11,02,8.70
2016,03,28,11,03,8.70
2016,03,28,11,04,8.70
2016,03,28,11,05,8.70
2016,03,28,11,06,8.70
2016,03,28,11,07,8.70
2016,03,28,11,08,8.70
2016,03,28,11,09,8.70
2016,03,28,11,10,8.70
2016,03,28,11,11,8.70
2016,03,28,11,12,8.70
2016,03,28,11,13,8.80
2016,03,28,11,14,8.80
2016,03,28,11,15,8.80
2016,03,28,11,16,8.80
2016,03,28,11,17,8.80
2016,03,28,11,18,8.80
2016,03,28,11,19,8.80
2016,03,28,11,20,8.80
2016,03,28,11,21,8.80
2016,03,28,11,22,8.90
2016,03,28,11,23,8.90
2016,03,28,11,24,8.90
2016,03,28,11,25,9.00
2016,03,28,11,26,8.90
2016,03,28,11,27,9.00
2016,03,28,11,28,9.00
2016,03,28,11,29,9.00
2016,03,28,11,30,9.00
2016,03,28,11,31,9.00
2016,03,28,11,32,9.00
2016,03,28,11,33,9.00
2016,03,28,11,34,8.90
2016,03,28,11,35,9.00
2016,03,28,11,36,9.00
2016,03,28,11,37,9.00
2016,03,28,11,38,9.10
2016,03,28,11,39,9.20
2016,03,28,11,40,9.20
2016,03,28,11,41,9.20
2016,03,28,11,42,9.20
2016,03,28,11,43,9.30
2016,03,28,11,44,9.30
2016,03,28,11,45,9.30
2016,03,28,11,46,9.20
2016,03,28,11,47,9.20
2016,03,28,11,48,9.20
2016,03,28,11,49,9.20
2016,03,28,11,50,9.20
2016,03,28,11,51,9.30
2016,03,28,11,52,9.30
2016,03,28,11,53,9.40
2016,03,28,11,54,9.50
2016,03,28,11,55,9.60
2016,03,28,11,56,9.70
2016,03,28,11,57,9.70
2016,03,28,11,58,9.70
2016,03,28,11,59,9.80
2016,03,28,12,00,9.90
2016,03,28,12,01,10.00
2016,03,28,12,02,10.00
2016,03,28,12,03,10.00
2016,03,28,12,04,9.90
2016,03,28,12,05,9.90
2016,03,28,12,06,9.90
2016,03,28,12,07,9.90
2016,03,28,12,08,9.90
2016,03,28,12,09,9.90
2016,03,28,12,10,9.90
2016,03,28,12,11,10.00
2016,03,28,12,12,10.00
2016,03,28,12,13,10.10
2016,03,28,12,14,10.00
2016,03,28,12,15,10.00
2016,03,28,12,16,10.00
2016,03,28,12,17,10.00
2016,03,28,12,18,10.00
2016,03,28,12,19,10.00
2016,03,28,12,20,10.00
2016,03,28,12,21,10.00
2016,03,28,12,22,10.00
2016,03,28,12,23,10.00
2016,03,28,12,24,10.00
2016,03,28,12,25,10.00
2016,03,28,12,26,10.10
2016,03,28,12,27,10.10
2016,03,28,12,28,10.00
2016,03,28,12,29,9.90
2016,03,28,12,30,9.90
2016,03,28,12,31,9.90
2016,03,28,12,32,10.00
2016,03,28,12,33,10.00
2016,03,28,12,34,10.10
2016,03,28,12,35,10.20
2016,03,28,12,36,10.20
2016,03,28,12,37,10.30
2016,03,28,12,38,10.40
2016,03,28,12,39,10.40
2016,03,28,12,40,10.50
2016,03,28,12,41,10.60
2016,03,28,12,42,10.70
2016,03,28,12,43,10.70
2016,03,28,12,44,10.70
2016,03,28,12,45,10.80
2016,03,28,12,46,10.80
2016,03,28,12,47,10.80
2016,03,28,12,48,10.70
2016,03,28,12,49,10.60
2016,03,28,12,50,10.60
2016,03,28,12,51,10.60
2016,03,28,12,52,10.70
2016,03,28,12,53,10.70
2016,03,28,12,54,10.80
2016,03,28,12,55,10.90
2016,03,28,12,56,10.90
2016,03,28,12,57,10.90
2016,03,28,12,58,10.90
2016,03,28,12,59,10.90
2016,03,28,13,00,10.90
2016,03,28,13,01,10.90
2016,03,28,13,02,10.90
2016,03,28,13,03,10.90
2016,03,28,13,04,10.90
2016,03,28,13,05,10.80
2016,03,28,13,06,10.70
2016,03,28,13,07,10.60
2016,03,28,13,08,10.50
2016,03,28,13,09,10.40
2016,03,28,13,10,10.40
2016,03,28,13,11,10.50
2016,03,28,13,12,10.50
2016,03,28,13,13,10.50
2016,03,28,13,14,10.60
2016,03,28,13,15,10.50
2016,03,28,13,16,10.40
2016,03,28,13,17,10.40
2016,03,28,13,18,10.50
2016,03,28,13,19,10.60
2016,03,28,13,20,10.70
2016,03,28,13,21,10.70
2016,03,28,13,22,10.70
2016,03,28,13,23,10.70
2016,03,28,13,24,10.60
2016,03,28,13,25,10.50
2016,03,28,13,26,10.40
2016,03,28,13,27,10.40
2016,03,28,13,28,10.40
2016,03,28,13,29,10.40
2016,03,28,13,30,10.40
2016,03,28,13,31,10.20
2016,03,28,13,32,10.10
2016,03,28,13,33,10.00
2016,03,28,13,34,10.00
2016,03,28,13,35,10.10
2016,03,28,13,36,10.10
2016,03,28,13,37,10.20
2016,03,28,13,38,10.30
2016,03,28,13,39,10.40
2016,03,28,13,40,10.40
2016,03,28,13,41,10.50
2016,03,28,13,42,10.60
2016,03,28,13,43,10.60
2016,03,28,13,44,10.70
2016,03,28,13,45,10.70
2016,03,28,13,46,10.70
2016,03,28,13,47,10.70
2016,03,28,13,48,10.80
2016,03,28,13,49,10.90
2016,03,28,13,50,11.00
2016,03,28,13,51,11.20
2016,03,28,13,52,11.30
2016,03,28,13,53,11.30
2016,03,28,13,54,11.40
2016,03,28,13,55,11.50
2016,03,28,13,56,11.60
2016,03,28,13,57,11.60
2016,03,28,13,58,11.70
2016,03,28,13,59,11.80
2016,03,28,14,00,11.80
2016,03,28,14,01,11.90
2016,03,28,14,02,11.90
2016,03,28,14,03,11.80
2016,03,28,14,04,11.80
2016,03,28,14,05,11.70
2016,03,28,14,06,11.70
2016,03,28,14,07,11.70
2016,03,28,14,08,11.80
2016,03,28,14,09,11.80
2016,03,28,14,10,11.90
2016,03,28,14,11,11.90
2016,03,28,14,12,11.90
2016,03,28,14,13,11.90
2016,03,28,14,14,11.90
2016,03,28,14,15,12.00
2016,03,28,14,16,12.10
2016,03,28,14,17,12.00
2016,03,28,14,18,11.80
2016,03,28,14,19,11.70
2016,03,28,14,20,11.60
2016,03,28,14,21,11.50
2016,03,28,14,22,11.60
2016,03,28,14,23,11.60
2016,03,28,14,24,11.60
2016,03,28,14,25,11.60
2016,03,28,14,26,11.50
2016,03,28,14,27,11.50
2016,03,28,14,28,11.60
2016,03,28,14,29,11.60
2016,03,28,14,30,11.60
2016,03,28,14,31,11.50
2016,03,28,14,32,11.40
2016,03,28,14,33,11.40
2016,03,28,14,34,11.40
2016,03,28,14,35,11.40
2016,03,28,14,36,11.40
2016,03,28,14,37,11.40
2016,03,28,14,38,11.50
2016,03,28,14,39,11.60
2016,03,28,14,40,11.70
2016,03,28,14,41,11.70
2016,03,28,14,42,11.50
2016,03,28,14,43,11.30
2016,03,28,14,44,11.20
2016,03,28,14,45,11.20
2016,03,28,14,46,11.20
2016,03,28,14,47,11.10
2016,03,28,14,48,11.00
2016,03,28,14,49,11.00
2016,03,28,14,50,11.10
2016,03,28,14,51,11.10
2016,03,28,14,52,11.10
2016,03,28,14,53,11.20
2016,03,28,14,54,11.30
2016,03,28,14,55,11.30
2016,03,28,14,56,11.30
2016,03,28,14,57,11.20
2016,03,28,14,58,11.20
2016,03,28,14,59,11.30
2016,03,28,15,00,11.30
2016,03,28,15,01,11.30
2016,03,28,15,02,11.30
2016,03,28,15,03,11.40
2016,03,28,15,04,11.40
2016,03,28,15,05,11.40
2016,03,28,15,06,11.50
2016,03,28,15,07,11.50
2016,03,28,15,08,11.50
2016,03,28,15,09,11.60
2016,03,28,15,10,11.60
2016,03,28,15,11,11.60
2016,03,28,15,12,11.50
2016,03,28,15,13,11.60
2016,03,28,15,14,11.60
2016,03,28,15,15,11.60
2016,03,28,15,16,11.70
2016,03,28,15,17,11.70
2016,03,28,15,18,11.70
2016,03,28,15,19,11.60
2016,03,28,15,20,11.50
2016,03,28,15,21,11.50
2016,03,28,15,22,11.40
2016,03,28,15,23,11.40
2016,03,28,15,24,11.30
2016,03,28,15,25,11.40
2016,03,28,15,26,11.40
2016,03,28,15,27,11.30
2016,03,28,15,28,11.30
2016,03,28,15,29,11.30
2016,03,28,15,30,11.30
2016,03,28,15,31,11.40
2016,03,28,15,32,11.50
2016,03,28,15,33,11.50
2016,03,28,15,34,11.50
2016,03,28,15,35,11.40
2016,03,28,15,36,11.30
2016,03,28,15,37,11.20
2016,03,28,15,38,11.20
2016,03,28,15,39,11.30
2016,03,28,15,40,11.30
2016,03,28,15,41,11.40
2016,03,28,15,42,11.50
2016,03,28,15,43,11.50
2016,03,28,15,44,11.60
2016,03,28,15,45,11.60
2016,03,28,15,46,11.60
2016,03,28,15,47,11.60
2016,03,28,15,48,11.60
2016,03,28,15,49,11.60
2016,03,28,15,50,11.60
2016,03,28,15,51,11.60
2016,03,28,15,52,11.50
2016,03,28,15,53,11.40
2016,03,28,15,54,11.40
2016,03,28,15,55,11.40
2016,03,28,15,56,11.30
2016,03,28,15,57,11.30
2016,03,28,15,58,11.30
2016,03,28,15,59,11.30
2016,03,28,16,00,11.40
2016,03,28,16,01,11.40
2016,03,28,16,02,11.30
2016,03,28,16,03,11.30
2016,03,28,16,04,11.30
2016,03,28,16,05,11.30
2016,03,28,16,06,11.30
2016,03,28,16,07,11.40
2016,03,28,16,08,11.40
2016,03,28,16,09,11.40
2016,03,28,16,10,11.40
2016,03,28,16,11,11.30
2016,03,28,16,12,11.30
2016,03,28,16,13,11.20
2016,03,28,16,14,11.20
2016,03,28,16,15,11.20
2016,03,28,16,16,11.20
2016,03,28,16,17,11.20
2016,03,28,16,18,11.20
2016,03,28,16,19,11.30
2016,03,28,16,20,11.30
2016,03,28,16,21,11.30
2016,03,28,16,22,11.30
2016,03,28,16,23,11.30
2016,03,28,16,24,11.30
2016,03,28,16,25,11.30
2016,03,28,16,26,11.40
2016,03,28,16,27,11.40
2016,03,28,16,28,11.40
2016,03,28,16,29,11.40
2016,03,28,16,30,11.40
2016,03,28,16,31,11.40
2016,03,28,16,32,11.40
2016,03,28,16,33,11.50
2016,03,28,16,34,11.60
2016,03,28,16,35,11.60
2016,03,28,16,36,11.60
2016,03,28,16,37,11.60
2016,03,28,16,38,11.60
2016,03,28,16,39,11.60
2016,03,28,16,40,11.60
2016,03,28,16,41,11.60
2016,03,28,16,42,11.70
2016,03,28,16,43,11.60
2016,03,28,16,44,11.50
2016,03,28,16,45,11.40
2016,03,28,16,46,11.40
2016,03,28,16,47,11.50
2016,03,28,16,48,11.50
2016,03,28,16,49,11.60
2016,03,28,16,50,11.60
2016,03,28,16,51,11.60
2016,03,28,16,52,11.60
2016,03,28,16,53,11.60
2016,03,28,16,54,11.60
2016,03,28,16,55,11.70
2016,03,28,16,56,11.60
2016,03,28,16,57,11.60
2016,03,28,16,58,11.50
2016,03,28,16,59,11.50
2016,03,28,17,00,11.50
2016,03,28,17,01,11.50
2016,03,28,17,02,11.50
2016,03,28,17,03,11.60
2016,03,28,17,04,11.60
2016,03,28,17,05,11.50
2016,03,28,17,06,11.60
2016,03,28,17,07,11.60
2016,03,28,17,08,11.70
2016,03,28,17,09,11.80
2016,03,28,17,10,11.90
2016,03,28,17,11,11.90
2016,03,28,17,12,11.80
2016,03,28,17,13,11.80
2016,03,28,17,14,11.80
2016,03,28,17,15,11.80
2016,03,28,17,16,11.80
2016,03,28,17,17,11.90
2016,03,28,17,18,11.90
2016,03,28,17,19,11.80
2016,03,28,17,20,11.80
2016,03,28,17,21,11.80
2016,03,28,17,22,11.80
2016,03,28,17,23,11.80
2016,03,28,17,24,11.80
2016,03,28,17,25,11.70
2016,03,28,17,26,11.60
2016,03,28,17,27,11.60
2016,03,28,17,28,11.50
2016,03,28,17,29,11.50
2016,03,28,17,30,11.50
2016,03,28,17,31,11.60
2016,03,28,17,32,11.60
2016,03,28,17,33,11.60
2016,03,28,17,34,11.50
2016,03,28,17,35,11.40
2016,03,28,17,36,11.40
2016,03,28,17,37,11.40
2016,03,28,17,38,11.50
2016,03,28,17,39,11.50
2016,03,28,17,40,11.60
2016,03,28,17,41,11.60
2016,03,28,17,42,11.60
2016,03,28,17,43,11.70
2016,03,28,17,44,11.60
2016,03,28,17,45,11.50
2016,03,28,17,46,11.50
2016,03,28,17,47,11.40
2016,03,28,17,48,11.40
2016,03,28,17,49,11.40
2016,03,28,17,50,11.30
2016,03,28,17,51,11.30